Weather History for Branson, MO

Change the Weather History Date:

Tuesday, May 21, 2013

  Actual Average (KHRO) Record (KHRO)
Temperature  
Mean Temperature 62 °F 67 °F  
Max Temperature 66 °F 77 °F 96 °F (1904)
Min Temperature 57 °F 57 °F 38 °F (1954)
Degree Days  
Heating Degree Days 4 2  
Month to date heating degree days 64  
Since 1 July heating degree days 3985  
Cooling Degree Days 0 4  
Month to date cooling degree days 57  
Year to date cooling degree days 94  
Growing Degree Days 12 (Base 50)    
Moisture  
Dew Point 58 °F    
Average Humidity 89    
Maximum Humidity 100    
Minimum Humidity 68    
Precipitation  
Precipitation 0.09 in 0.13 in 3.43 in (1920)
Month to date precipitation 3.32  
Year to date precipitation 16.63  
Snow  
Snow 0.00 in 0.00 in - ()
Month to date snowfall 0.0  
Since 1 July snowfall 11.5  
Snow Depth -    
Sea Level Pressure  
Sea Level Pressure 29.82 in    
Wind  
Wind Speed 8 mph (SSW)    
Max Wind Speed 18 mph    
Max Gust Speed 33 mph    
Visibility 9 miles    
Events Rain , Thunderstorm    
T = Trace of Precipitation, MM = Missing Value Source: NWS Daily Summary

Daily Weather History Graph

Daily Weather History Graph

Search for Another Location

Airport:

Trip Planner

Search our weather history database for the weather conditions in past years. The results will help you decide how hot, cold, wet, or windy it might be!

Date:

Astronomy

May. 21, 2013 Rise Set
Actual Time 6:01 AM CDT 8:17 PM CDT
Civil Twilight 5:32 AM CDT 8:47 PM CDT
Nautical Twilight 4:56 AM CDT 9:23 PM CDT
Astronomical Twilight 4:17 AM CDT 10:02 PM CDT
Moon 4:37 PM CDT (5/21) 3:23 AM CDT (5/21)
Length of Visible Light 15h 15m
Length of Day
14h 16m
Waxing Gibbous, 84% of the Moon is Illuminated
May 21
Waxing Gibbous
May 24
Full
May 31
Last Quarter
Jun 8
New
Jun 16
First Quarter

Hourly Weather History & Observations

Time (CDT) Temp. Dew Point Humidity Pressure Visibility Wind Dir Wind Speed Gust Speed Precip Events Conditions
12:15 AM 62.6 °F 59.0 °F 88% 29.84 in 9.0 mi South 12.7 mph 19.6 mph N/A Rain Light Rain
12:35 AM 62.6 °F 57.2 °F 82% 29.82 in 8.0 mi SSW 13.8 mph 20.7 mph N/A Rain Light Rain
12:55 AM 62.6 °F 59.0 °F 88% 29.80 in 10.0 mi SSE 6.9 mph - N/A   Scattered Clouds
1:15 AM 62.6 °F 59.0 °F 88% 29.83 in 10.0 mi Calm Calm - N/A   Scattered Clouds
1:35 AM 62.6 °F 59.0 °F 88% 29.85 in 10.0 mi Calm Calm - N/A   Mostly Cloudy
1:55 AM 62.6 °F 59.0 °F 88% 29.83 in 10.0 mi SSE 5.8 mph - N/A Rain Light Rain
2:15 AM 60.8 °F 59.0 °F 94% 29.82 in 10.0 mi SSE 9.2 mph - N/A   Partly Cloudy
2:35 AM 62.6 °F 59.0 °F 88% 29.79 in 10.0 mi SSE 9.2 mph - N/A   Scattered Clouds
2:55 AM 62.6 °F 57.2 °F 82% 29.78 in 10.0 mi SSE 9.2 mph - N/A   Partly Cloudy
3:15 AM 60.8 °F 59.0 °F 94% 29.80 in 10.0 mi South 4.6 mph - N/A   Clear
3:35 AM 60.8 °F 59.0 °F 94% 29.79 in 10.0 mi South 4.6 mph - N/A   Clear
3:55 AM 60.8 °F 57.2 °F 88% 29.80 in 10.0 mi South 5.8 mph - N/A   Clear
4:15 AM 62.6 °F 57.2 °F 82% 29.80 in 10.0 mi Calm Calm - N/A   Clear
4:35 AM 62.6 °F 57.2 °F 82% 29.84 in 10.0 mi South 3.5 mph - N/A   Partly Cloudy
4:55 AM 64.4 °F 57.2 °F 77% 29.84 in 9.0 mi WSW 15.0 mph 29.9 mph N/A Rain Light Rain
5:15 AM 64.4 °F 59.0 °F 83% 29.85 in 4.0 mi SW 18.4 mph 33.4 mph 0.01 in Rain Light Rain
5:35 AM 62.6 °F 57.2 °F 82% 29.87 in 4.0 mi SW 15.0 mph 28.8 mph 0.06 in Rain , Thunderstorm Rain
5:55 AM 62.6 °F 57.2 °F 82% 29.82 in 4.0 mi SSE 6.9 mph 16.1 mph 0.09 in Rain , Thunderstorm Light Thunderstorms and Rain
6:15 AM 60.8 °F 59.0 °F 94% 29.78 in 10.0 mi ESE 9.2 mph - N/A   Mostly Cloudy
6:35 AM 60.8 °F 57.2 °F 88% 29.79 in 10.0 mi SW 3.5 mph - N/A   Clear
6:45 AM 59.0 °F 57.2 °F 94% 29.81 in 10.0 mi West 8.1 mph - N/A   Overcast
7:45 AM 62.6 °F 59.0 °F 88% 29.86 in 10.0 mi SW 5.8 mph - N/A   Overcast
8:45 AM 60.8 °F 59.0 °F 94% 29.88 in 7.0 mi SW 12.7 mph 17.3 mph N/A Rain Light Rain
10:45 AM 66.2 °F 55.4 °F 68% 29.81 in 10.0 mi SSE 12.7 mph - N/A   Overcast
11:10 AM 62.6 °F 59.0 °F 88% 29.91 in 7.0 mi West 8.1 mph 16.1 mph N/A Rain , Thunderstorm Light Thunderstorms and Rain
11:45 AM 60.8 °F 59.0 °F 94% 29.90 in 5.0 mi SSW 8.1 mph - N/A Rain , Thunderstorm Light Thunderstorms and Rain
12:45 PM 62.6 °F 59.0 °F 88% 29.92 in 4.0 mi South 11.5 mph - N/A Rain , Thunderstorm Thunderstorms and Rain
1:45 PM 62.6 °F 57.2 °F 82% 29.93 in 4.0 mi SSW 8.1 mph - N/A Rain Light Rain
2:45 PM 62.6 °F 59.0 °F 88% 29.83 in 10.0 mi SSE 6.9 mph - N/A Rain Light Rain
3:45 PM 64.4 °F 59.0 °F 83% 29.74 in 10.0 mi SE 13.8 mph - N/A   Overcast
4:45 PM 62.6 °F 59.0 °F 88% 29.87 in 10.0 mi West 9.2 mph 19.6 mph N/A   Overcast
5:46 PM 62.6 °F 59.0 °F 88% 29.86 in 5.0 mi West 11.5 mph 21.9 mph N/A Rain Light Rain
6:45 PM 59.0 °F 59.0 °F 100% 29.84 in 5.0 mi WSW 12.7 mph 16.1 mph N/A Rain Light Rain
7:45 PM 59.0 °F 59.0 °F 100% 29.76 in 10.0 mi SSE 12.7 mph 17.3 mph N/A   Overcast
8:46 PM 59.0 °F 57.2 °F 94% 29.67 in 10.0 mi South 11.5 mph - N/A   Overcast
9:15 PM 60.8 °F 57.2 °F 88% 29.78 in 10.0 mi West 4.6 mph - N/A   Scattered Clouds
9:35 PM 59.0 °F 57.2 °F 94% 29.80 in 10.0 mi WNW 6.9 mph - N/A   Clear
9:55 PM 59.0 °F 57.2 °F 94% 29.80 in 10.0 mi WNW 4.6 mph - N/A   Clear
10:15 PM 59.0 °F 57.2 °F 94% 29.81 in 10.0 mi West 5.8 mph - N/A   Clear
10:35 PM 59.0 °F 57.2 °F 94% 29.82 in 10.0 mi SW 5.8 mph - N/A   Clear
10:55 PM 59.0 °F 57.2 °F 94% 29.83 in 10.0 mi SW 3.5 mph - N/A   Partly Cloudy
11:15 PM 57.2 °F 57.2 °F 100% 29.82 in 10.0 mi WSW 4.6 mph - N/A   Partly Cloudy
11:35 PM 59.0 °F 57.2 °F 94% 29.82 in 10.0 mi WSW 5.8 mph - N/A   Mostly Cloudy
11:55 PM 59.0 °F 57.2 °F 94% 29.82 in 10.0 mi West 5.8 mph - N/A   Overcast